[[{"header":{"parameterUnit":"m.s-1","parameterCategory":1,"la1":30.2991,"la2":30.254,"lo1":-89.0895,"lo2":-89.0444,"dy":0.0017,"dx":0.0017,"nx":28,"ny":28,"refTime":"2024-03-06T03:00:00:Z","depth":0,"parameterNumber":2,"parameterNumberName":"U-component_of_WINDS"},"data":[0,0,0,0,0,0,0,0,0,0,0,0,0,0,0,0,0,0,0,0,0,0,0,0,0,0,0,0,0,0,0,0,0,0,0,0,0,0,0,0,0,0,0,0,0,0,0,0,0,0,0,0,0,0,0,0,0,0,1.3163,1.3164,0,1.3231,1.3232,1.3233,1.3231,1.323,1.3229,1.3228,1.3301,1.3304,1.3307,0,0,0,0,0,0,0,0,0,0,0,0,0,1.3037,1.304,1.3163,1.3164,1.3165,1.3231,1.3232,1.3233,1.3231,1.323,1.3229,1.3228,1.33,1.3303,1.3307,0,0,0,0,0,0,0,0,0,0,0,0,0,1.3097,1.304,1.3163,1.3172,1.3173,1.3231,1.3232,1.3233,1.3232,1.323,1.3229,1.3227,1.3299,1.3303,1.3307,1.3361,0,0,1.332,1.3322,0,0,0,0,0,0,0,0,1.3094,1.3102,1.317,1.3171,1.3173,1.3221,1.3214,1.3276,1.3232,1.321,1.3228,1.3227,1.3276,1.3282,1.3298,1.3364,1.3367,1.332,1.3323,1.3325,1.3326,0,0,0,0,0,0,0,1.309,1.3099,1.319,1.3171,1.3173,1.3174,1.3181,1.3226,1.325,1.3211,1.3211,1.3219,1.3276,1.3294,1.3299,1.3368,1.332,1.3324,1.3327,1.3328,1.3487,1.3489,0,0,0,0,0,0,1.3083,1.3096,1.3188,1.3192,1.3129,1.3178,1.3185,1.3207,1.3249,1.3254,1.322,1.3219,1.3287,1.3294,1.3302,1.3371,1.3325,1.3329,1.3331,1.3485,1.3487,1.3489,0,0,0,0,0,0,1.308,1.3091,1.3185,1.3144,1.3156,1.3181,1.3206,1.3209,1.3226,1.3256,1.3261,1.3233,1.3286,1.3296,1.3347,1.3373,1.3331,1.3334,1.3483,1.3486,1.3488,1.3507,0,0,0,0,0,0,1.3077,1.309,1.311,1.3144,1.3158,1.3228,1.3207,1.3212,1.3233,1.3232,1.3269,1.3274,1.3286,1.3341,1.3351,1.3378,1.3338,1.3481,1.3484,1.3487,1.3504,1.3509,1.3514,0,0,0,0,0,1.3072,1.3112,1.3111,1.3122,1.3182,1.3229,1.3237,1.3249,1.3235,1.3256,1.3276,1.3273,1.3368,1.3346,1.3358,1.3386,1.348,1.3484,1.3487,1.3501,1.3508,1.3514,0,0,0,0,0,0,1.308,1.3116,1.3115,1.3167,1.3195,1.3229,1.3255,1.3255,1.3288,1.3286,1.33,1.3309,1.3361,1.3378,1.3353,1.3443,1.3422,1.3429,1.3429,1.3436,1.3441,1.3437,1.3341,0,0,0,0,0,1.3088,1.3121,1.3151,1.3194,1.3208,1.3229,1.325,1.3257,1.3287,1.3299,1.3322,1.3352,1.3389,1.3413,1.3448,1.3506,1.3516,1.3532,1.3537,1.3541,1.3547,1.3583,1.3591,1.3502,1.3502,1.3502,0,0,1.3104,1.3128,1.3148,1.3196,1.3219,1.3255,1.3239,1.3277,1.3305,1.3305,1.3355,1.3373,1.3408,1.3463,1.3489,1.348,1.3574,1.3546,1.3549,1.3553,1.3587,1.3596,1.3603,1.3504,1.3504,1.3504,0,0,1.3153,1.3173,1.3212,1.3235,1.327,1.3284,1.3293,1.3328,1.334,1.339,1.3391,1.3425,1.3488,1.3514,1.3535,1.3597,1.3597,1.3608,1.3636,1.3671,1.3678,1.3684,1.3709,1.3718,1.3613,1.3613,1.3613,0,1.3169,1.3222,1.3233,1.3272,1.3295,1.3296,1.3338,1.336,1.3404,1.3421,1.3409,1.349,1.3513,1.3577,1.3592,1.3608,1.3622,1.3604,1.3675,1.3682,1.3688,1.3713,1.3722,1.3615,1.3615,1.3614,1.3614,0,1.3243,1.328,1.3308,1.3351,1.3377,1.3417,1.3436,1.3461,1.3466,1.3482,1.3535,1.3563,1.3606,1.3621,1.3626,1.3687,1.368,1.3672,1.3653,1.3698,1.3721,1.373,1.3617,1.3616,1.3616,1.3615,0,0,1.3298,1.3348,1.3358,1.3379,1.3418,1.3448,1.349,1.3531,1.3554,1.3585,1.3622,1.3676,1.367,1.3694,1.3702,1.3732,1.3784,1.3721,1.3722,1.3735,1.3856,1.3865,1.3875,1.3784,1.3785,1.3787,1.3855,0,1.3354,1.3427,1.3438,1.3503,1.354,1.3542,1.3579,1.3608,1.3625,1.366,1.3679,1.3718,1.3705,1.372,1.3749,1.3771,1.3809,1.3766,1.3822,1.3823,1.3815,1.3887,1.3895,1.3957,1.3863,1.3865,1.3866,0,1.3428,1.3461,1.353,1.3567,1.3583,1.3615,1.3656,1.3688,1.3723,1.3733,1.3761,1.3767,1.3813,1.379,1.3856,1.3827,1.385,1.3864,1.3867,1.3875,1.3849,1.3899,1.3977,1.3988,1.388,1.3879,1.3878,0,1.3466,1.3528,1.3578,1.3595,1.3638,1.3662,1.3681,1.3714,1.3739,1.3775,1.3793,1.3833,1.3857,1.3889,1.3907,1.3888,1.3973,1.395,1.3985,1.3985,1.4005,1.4004,1.4091,1.4015,1.4015,1.4015,1.4014,0,1.3528,1.3571,1.3596,1.3627,1.3676,1.369,1.3739,1.3758,1.3787,1.3824,1.3828,1.3863,1.3882,1.3921,1.3935,1.399,1.3999,1.4011,1.4015,1.4012,1.4011,1.403,1.4027,1.4017,1.4017,1.4016,1.4016,0,1.358,1.3597,1.3653,1.3689,1.37,1.3735,1.3767,1.3799,1.3816,1.3863,1.3874,1.3902,1.3947,1.3967,1.4023,1.4033,1.4097,1.4096,1.4085,1.4087,1.4122,1.412,1.4226,1.4242,1.4153,1.4154,1.4154,0,1.3619,1.3652,1.3693,1.3718,1.3738,1.3777,1.3803,1.3819,1.3846,1.3889,1.3917,1.3962,1.4,1.4073,1.4099,1.4143,1.4145,1.418,1.4152,1.415,1.415,1.4149,1.4154,1.4185,1.4186,1.4187,1.4188,0,1.3689,1.3697,1.3734,1.3775,1.3806,1.3839,1.3871,1.3892,1.3913,1.3944,1.3991,1.402,1.4078,1.4125,1.4171,1.4193,1.4196,1.4196,1.4207,1.4206,1.42,1.4207,1.4102,1.4194,1.4193,1.4193,1.4192,1.4192,1.3739,1.377,1.3804,1.3846,1.3872,1.3902,1.3935,1.3956,1.3995,1.4043,1.405,1.4101,1.4138,1.42,1.4224,1.4266,1.4258,1.4273,1.4277,1.4281,1.4285,1.4191,1.4274,1.4273,1.4273,1.4273,1.4273,0,1.3812,1.3834,1.3872,1.3918,1.3952,1.3949,1.3986,1.4015,1.4059,1.4093,1.413,1.4185,1.4231,1.4261,1.4308,1.4336,1.4339,1.4349,1.4348,1.4354,1.4288,1.4275,1.4346,1.4346,1.4346,1.4346,1.4346,1.4346,1.3854,1.3908,1.392,1.3987,1.401,1.4059,1.4081,1.411,1.4137,1.4199,1.4237,1.4256,1.4289,1.4339,1.4382,1.439,1.4409,1.4419,1.4427,1.4366,1.4358,1.4351,1.4339,1.4422,1.4422,1.4491,1.4491,1.4492]},{"header":{"parameterUnit":"m.s-1","parameterCategory":1,"la1":30.2991,"la2":30.254,"lo1":-89.0895,"lo2":-89.0444,"dy":0.0017,"dx":0.0017,"nx":28,"ny":28,"refTime":"2024-03-06T03:00:00:Z","depth":0,"parameterNumber":3,"parameterNumberName":"V-component_of_WINDS"},"data":[0,0,0,0,0,0,0,0,0,0,0,0,0,0,0,0,0,0,0,0,0,0,0,0,0,0,0,0,0,0,0,0,0,0,0,0,0,0,0,0,0,0,0,0,0,0,0,0,0,0,0,0,0,0,0,0,0,0,-3.7595,-3.7595,0,-3.7623,-3.7624,-3.7624,-3.7684,-3.7685,-3.7686,-3.7687,-3.7709,-3.7708,-3.7708,0,0,0,0,0,0,0,0,0,0,0,0,0,-3.7589,-3.7589,-3.7595,-3.7595,-3.7596,-3.7623,-3.7624,-3.7624,-3.7684,-3.7685,-3.7687,-3.7688,-3.7709,-3.7708,-3.7708,0,0,0,0,0,0,0,0,0,0,0,0,0,-3.7602,-3.7589,-3.7595,-3.7629,-3.7632,-3.7623,-3.7624,-3.7624,-3.7683,-3.7685,-3.7687,-3.7689,-3.7709,-3.7708,-3.7708,-3.7665,0,0,-3.7705,-3.7705,0,0,0,0,0,0,0,0,-3.7601,-3.7602,-3.7623,-3.7626,-3.763,-3.7652,-3.763,-3.7638,-3.7683,-3.7664,-3.7687,-3.769,-3.7688,-3.7689,-3.769,-3.7666,-3.7667,-3.7705,-3.7704,-3.7704,-3.7704,0,0,0,0,0,0,0,-3.76,-3.7601,-3.7606,-3.7624,-3.7628,-3.7642,-3.7646,-3.7631,-3.7665,-3.7665,-3.767,-3.7673,-3.769,-3.7691,-3.7691,-3.7668,-3.7705,-3.7704,-3.7704,-3.7703,-3.7618,-3.7616,0,0,0,0,0,0,-3.7595,-3.76,-3.7605,-3.7607,-3.762,-3.764,-3.7645,-3.7643,-3.7665,-3.7671,-3.7671,-3.7676,-3.7691,-3.7692,-3.7692,-3.7649,-3.7704,-3.7703,-3.7703,-3.762,-3.7617,-3.7616,0,0,0,0,0,0,-3.7594,-3.7595,-3.7604,-3.7605,-3.7607,-3.7639,-3.7636,-3.7643,-3.7643,-3.767,-3.7675,-3.7666,-3.7693,-3.7693,-3.7674,-3.765,-3.7703,-3.7702,-3.7622,-3.7619,-3.7616,-3.7558,0,0,0,0,0,0,-3.7594,-3.7594,-3.7579,-3.7604,-3.7607,-3.7586,-3.7635,-3.7642,-3.7643,-3.7649,-3.7666,-3.7671,-3.7694,-3.7675,-3.7673,-3.765,-3.7701,-3.7624,-3.762,-3.7617,-3.7563,-3.7554,-3.7547,0,0,0,0,0,-3.7594,-3.7558,-3.7578,-3.7578,-3.7588,-3.7584,-3.7586,-3.7615,-3.764,-3.7626,-3.7644,-3.767,-3.7653,-3.7672,-3.7671,-3.7647,-3.7625,-3.7621,-3.7618,-3.7566,-3.7556,-3.7547,0,0,0,0,0,0,-3.7525,-3.7562,-3.7584,-3.7556,-3.7567,-3.7594,-3.7576,-3.7602,-3.7604,-3.7609,-3.7644,-3.7648,-3.7624,-3.7633,-3.7654,-3.7611,-3.7644,-3.7639,-3.7605,-3.7596,-3.7588,-3.7586,-3.7701,0,0,0,0,0,-3.7507,-3.7502,-3.7534,-3.7506,-3.7511,-3.7543,-3.7542,-3.7565,-3.7576,-3.758,-3.7597,-3.7605,-3.7603,-3.76,-3.7598,-3.7565,-3.7571,-3.7548,-3.754,-3.7534,-3.7529,-3.7517,-3.7509,-3.7603,-3.7603,-3.7603,0,0,-3.7468,-3.7488,-3.7482,-3.7493,-3.7504,-3.7499,-3.7546,-3.7536,-3.7532,-3.7578,-3.7563,-3.7575,-3.7588,-3.7563,-3.7552,-3.7569,-3.7506,-3.7529,-3.7523,-3.7522,-3.7513,-3.7504,-3.7496,-3.76,-3.76,-3.7601,0,0,-3.7397,-3.741,-3.7391,-3.7404,-3.7422,-3.7445,-3.744,-3.7465,-3.7477,-3.7463,-3.7499,-3.7494,-3.7487,-3.7496,-3.75,-3.7439,-3.7465,-3.7438,-3.7396,-3.7384,-3.7377,-3.7371,-3.7352,-3.7345,-3.7433,-3.7433,-3.7433,0,-3.7346,-3.734,-3.7377,-3.7368,-3.7373,-3.7419,-3.7401,-3.741,-3.7425,-3.7428,-3.7448,-3.7445,-3.7456,-3.7437,-3.7423,-3.7423,-3.742,-3.7435,-3.7376,-3.737,-3.7364,-3.7347,-3.734,-3.743,-3.743,-3.743,-3.7431,0,-3.7279,-3.7275,-3.7257,-3.7277,-3.728,-3.7265,-3.7301,-3.7299,-3.7323,-3.7344,-3.7331,-3.7347,-3.7352,-3.7349,-3.737,-3.7334,-3.7345,-3.737,-3.7404,-3.7351,-3.7336,-3.7329,-3.7425,-3.7426,-3.7427,-3.7428,0,0,-3.716,-3.7206,-3.7199,-3.7211,-3.7238,-3.7235,-3.7225,-3.7234,-3.7233,-3.7244,-3.7237,-3.7234,-3.7259,-3.7263,-3.7286,-3.7276,-3.7232,-3.7303,-3.7303,-3.7291,-3.7198,-3.718,-3.7172,-3.725,-3.7249,-3.7248,-3.7198,0,-3.7096,-3.7083,-3.7119,-3.7096,-3.7095,-3.7142,-3.7133,-3.7149,-3.7169,-3.7171,-3.7192,-3.7191,-3.7222,-3.7226,-3.7218,-3.7239,-3.7214,-3.7243,-3.7244,-3.7244,-3.7241,-3.7163,-3.7143,-3.7095,-3.7192,-3.719,-3.719,0,-3.7017,-3.703,-3.7009,-3.7044,-3.7044,-3.7036,-3.7051,-3.7051,-3.7071,-3.7087,-3.7095,-3.7125,-3.7118,-3.7151,-3.7143,-3.7162,-3.7166,-3.7177,-3.7176,-3.7177,-3.7214,-3.7165,-3.708,-3.7073,-3.718,-3.7181,-3.7181,0,-3.6937,-3.6948,-3.6939,-3.6947,-3.6986,-3.698,-3.6995,-3.7018,-3.7023,-3.7035,-3.704,-3.7049,-3.7054,-3.7061,-3.7093,-3.7114,-3.7082,-3.7117,-3.7096,-3.7095,-3.7087,-3.7087,-3.7003,-3.7086,-3.7086,-3.7086,-3.7086,0,-3.6862,-3.6848,-3.6905,-3.6898,-3.6885,-3.6927,-3.6913,-3.6933,-3.6953,-3.6953,-3.6992,-3.699,-3.7032,-3.7035,-3.7059,-3.7052,-3.7052,-3.7066,-3.7072,-3.7063,-3.7062,-3.7066,-3.707,-3.7084,-3.7085,-3.7085,-3.7085,0,-3.6769,-3.6806,-3.68,-3.684,-3.685,-3.6838,-3.6872,-3.6869,-3.6894,-3.6893,-3.6895,-3.6933,-3.694,-3.6973,-3.6984,-3.7002,-3.6986,-3.6998,-3.698,-3.6985,-3.6963,-3.6965,-3.6879,-3.6872,-3.6957,-3.6956,-3.6956,0,-3.6719,-3.6711,-3.6752,-3.6756,-3.6772,-3.6777,-3.6785,-3.6827,-3.6833,-3.6859,-3.6853,-3.6864,-3.6874,-3.6882,-3.691,-3.6921,-3.6936,-3.6905,-3.6937,-3.693,-3.6939,-3.694,-3.6941,-3.6898,-3.6897,-3.6896,-3.6895,0,-3.6628,-3.6649,-3.6659,-3.6678,-3.6687,-3.6703,-3.6721,-3.6721,-3.6769,-3.6774,-3.6783,-3.6792,-3.6809,-3.6819,-3.6837,-3.6852,-3.6882,-3.6886,-3.6882,-3.6872,-3.6863,-3.6871,-3.6963,-3.6887,-3.6888,-3.6888,-3.6889,-3.6889,-3.6557,-3.6554,-3.6584,-3.6596,-3.6616,-3.6633,-3.6634,-3.6662,-3.6672,-3.6691,-3.6715,-3.6722,-3.6748,-3.6775,-3.6788,-3.6795,-3.6811,-3.6804,-3.6803,-3.6801,-3.6798,-3.6862,-3.6797,-3.6798,-3.6798,-3.6798,-3.6798,0,-3.647,-3.6494,-3.6505,-3.6532,-3.6543,-3.6574,-3.6597,-3.6604,-3.6611,-3.6633,-3.6645,-3.6658,-3.6671,-3.6703,-3.6718,-3.6717,-3.6732,-3.672,-3.6721,-3.6725,-3.6781,-3.6784,-3.6709,-3.6709,-3.6709,-3.6709,-3.6709,-3.6709,-3.6426,-3.6425,-3.645,-3.6459,-3.6482,-3.6493,-3.6504,-3.6521,-3.6541,-3.6555,-3.6567,-3.6589,-3.6616,-3.6635,-3.6649,-3.6658,-3.6663,-3.6647,-3.6661,-3.6712,-3.672,-3.6729,-3.6732,-3.6647,-3.6647,-3.6605,-3.6605,-3.6604]}]]